Dillon, CO

6:45 PM MST on February 19, 2017 (GMT -0700)
Copper Mountain

Weather History for KCCU - January, 2014

Change the Weather History Date:

Saturday, January 18, 2014

  Actual Average Record
Temperature  
Mean Temperature 22 °F -  
Max Temperature 30 °F - 33 °F (2015)
Min Temperature 14 °F - -7 °F (2008)
Degree Days  
Heating Degree Days 43    
Month to date heating degree days  
Cooling Degree Days 0    
Month to date cooling degree days  
Moisture  
Dew Point 6 °F    
Average Humidity 52    
Maximum Humidity 63    
Minimum Humidity 37    
Precipitation  
Precipitation 0.04 in - 0.04 in (2002)
Sea Level Pressure  
Sea Level Pressure 30.30 in    
Wind  
Wind Speed 15 mph (WSW)    
Max Wind Speed 23 mph    
Max Gust Speed 116 mph    
Visibility 10 miles    
Events      
T = Trace of Precipitation, MM = Missing Value Source: NWS Daily Summary

Daily Weather History Graph

Daily Weather History Graph

Search for Another Location

Airport or City:

Trip Planner

Search our weather history database for the weather conditions in past years. The results will help you decide how hot, cold, wet, or windy it might be!

Date:

Astronomy

Jan. 18, 2014 Rise Set
Actual Time 7:21 AM MST 5:08 PM MST
Civil Twilight 6:52 AM MST 5:37 PM MST
Nautical Twilight 6:19 AM MST 6:10 PM MST
Astronomical Twilight 5:47 AM MST 6:43 PM MST
Moon 7:52 PM MST (1/18) 8:23 AM MST (1/18)
Length of Visible Light 10h 45m
Length of Day
9h 46m
Waning Gibbous, 94% of the Moon is Illuminated
Jan 18
Waning Gibbous
Jan 23
Last Quarter
Jan 30
New
Feb 6
First Quarter
Feb 14
Full

Hourly Weather History & Observations

Time (MST) Temp. Windchill Dew Point Humidity Pressure Visibility Wind Dir Wind Speed Gust Speed Precip Events Conditions
12:16 AM 19.4 °F 3.2 °F 6.8 °F 58% 30.22 in 10.0 mi West 20.7 mph - N/A   Clear
12:36 AM 17.6 °F 0.1 °F 5.0 °F 58% 30.22 in 10.0 mi West 23.0 mph - N/A   Clear
12:56 AM 19.4 °F 2.8 °F 6.8 °F 58% 30.22 in 10.0 mi West 21.9 mph - N/A   Clear
1:16 AM 19.4 °F 2.5 °F 8.6 °F 63% 30.23 in 10.0 mi West 23.0 mph - N/A   Clear
1:36 AM 19.4 °F 2.5 °F 6.8 °F 58% 30.23 in 10.0 mi West 23.0 mph - N/A   Clear
1:56 AM 19.4 °F 3.2 °F 6.8 °F 58% 30.23 in 10.0 mi West 20.7 mph - N/A   Clear
2:16 AM 19.4 °F - 6.8 °F 58% 30.23 in 10.0 mi North - - N/A   Clear
2:36 AM 19.4 °F 2.5 °F 6.8 °F 58% 30.24 in 10.0 mi West 23.0 mph - N/A   Clear
2:56 AM 17.6 °F 1.3 °F 5.0 °F 58% 30.25 in 10.0 mi West 19.6 mph - N/A   Clear
3:16 AM 17.6 °F 0.9 °F 5.0 °F 58% 30.25 in 10.0 mi West 20.7 mph - N/A   Clear
3:36 AM 17.6 °F 1.7 °F 5.0 °F 58% 30.25 in 10.0 mi West 18.4 mph - N/A   Clear
3:56 AM 17.6 °F 2.7 °F 5.0 °F 58% 30.25 in 10.0 mi West 16.1 mph - N/A   Clear
4:16 AM 17.6 °F 2.2 °F 5.0 °F 58% 30.25 in 10.0 mi West 17.3 mph 25.3 mph N/A   Clear
4:36 AM 17.6 °F 1.3 °F 5.0 °F 58% 30.24 in 10.0 mi West 19.6 mph - N/A   Clear
4:56 AM 17.6 °F 2.2 °F 5.0 °F 58% 30.24 in 10.0 mi West 17.3 mph - N/A   Clear
5:16 AM 15.8 °F 6.1 °F 3.2 °F 58% 30.25 in 10.0 mi West 6.9 mph - N/A   Clear
5:36 AM 14.0 °F 3.9 °F 3.2 °F 62% 30.26 in 10.0 mi West 6.9 mph 116.2 mph N/A   Clear
5:56 AM 17.6 °F 2.7 °F 5.0 °F 58% 30.26 in 10.0 mi West 16.1 mph - N/A   Clear
6:16 AM 15.8 °F 2.7 °F 3.2 °F 58% 30.27 in 10.0 mi West 11.5 mph - N/A   Clear
6:36 AM 17.6 °F 3.7 °F 3.2 °F 53% 30.28 in 10.0 mi West 13.8 mph - N/A   Clear
6:56 AM 14.0 °F 0.5 °F 3.2 °F 62% 30.28 in 10.0 mi West 11.5 mph 16.1 mph N/A   Clear
7:16 AM 17.6 °F 2.7 °F 3.2 °F 53% 30.27 in 10.0 mi West 16.1 mph - N/A   Clear
7:36 AM 19.4 °F 5.0 °F 5.0 °F 54% 30.27 in 10.0 mi West 16.1 mph - N/A   Clear
7:56 AM 19.4 °F - 5.0 °F 54% 30.28 in 10.0 mi North - - N/A   Clear
8:16 AM 19.4 °F 8.6 °F 5.0 °F 54% 30.30 in 10.0 mi West 9.2 mph 17.3 mph N/A   Clear
8:36 AM 19.4 °F 9.5 °F 5.0 °F 54% 30.31 in 10.0 mi West 8.1 mph - N/A   Clear
8:56 AM 19.4 °F 14.3 °F 3.2 °F 49% 30.33 in 10.0 mi SSW 3.5 mph - N/A   Clear
9:16 AM 21.2 °F 13.6 °F 3.2 °F 46% 30.34 in 10.0 mi West 5.8 mph - N/A   Clear
9:36 AM 21.2 °F 10.1 °F 3.2 °F 46% 30.35 in 10.0 mi West 10.4 mph - N/A   Clear
9:56 AM 21.2 °F 11.7 °F 5.0 °F 50% 30.35 in 10.0 mi West 8.1 mph - N/A   Clear
10:16 AM 23.0 °F 13.9 °F 5.0 °F 46% 30.35 in 10.0 mi WSW 8.1 mph - N/A   Clear
10:36 AM 24.8 °F 20.5 °F 6.8 °F 46% 30.36 in 10.0 mi WSW 3.5 mph - N/A   Clear
10:56 AM 23.0 °F 18.4 °F 8.6 °F 54% 30.36 in 10.0 mi WSW 3.5 mph - N/A   Clear
11:16 AM 24.8 °F 19.1 °F 8.6 °F 50% 30.36 in 10.0 mi WSW 4.6 mph - N/A   Clear
11:36 AM 26.6 °F 22.6 °F 8.6 °F 47% 30.36 in 10.0 mi WSW 3.5 mph - N/A   Clear
11:56 AM 26.6 °F 22.6 °F 8.6 °F 47% 30.35 in 10.0 mi SSW 3.5 mph - N/A   Clear
12:16 PM 28.4 °F 23.3 °F 12.2 °F 51% 30.34 in 10.0 mi SSW 4.6 mph - 0.02 in   Clear
12:36 PM 26.6 °F - 8.6 °F 47% 30.34 in 10.0 mi Calm Calm - 0.04 in   Clear
12:56 PM 28.4 °F 24.6 °F 8.6 °F 43% 30.33 in 10.0 mi SSW 3.5 mph - N/A   Clear
1:16 PM 28.4 °F 23.3 °F 8.6 °F 43% 30.33 in 10.0 mi SW 4.6 mph - N/A   Clear
1:36 PM 28.4 °F 23.3 °F 8.6 °F 43% 30.33 in 10.0 mi WSW 4.6 mph - N/A   Clear
1:56 PM 28.4 °F 19.7 °F 8.6 °F 43% 30.33 in 10.0 mi West 9.2 mph - N/A   Clear
2:16 PM 28.4 °F 19.1 °F 5.0 °F 37% 30.33 in 10.0 mi West 10.4 mph - N/A   Clear
2:36 PM 30.2 °F 24.3 °F 8.6 °F 40% 30.34 in 10.0 mi WSW 5.8 mph - N/A   Clear
2:56 PM 28.4 °F 23.3 °F 8.6 °F 43% 30.34 in 10.0 mi WSW 4.6 mph - N/A   Clear
3:16 PM 28.4 °F 20.4 °F 12.2 °F 51% 30.36 in 10.0 mi West 8.1 mph - N/A   Clear
3:36 PM 28.4 °F - 10.4 °F 47% 30.36 in 10.0 mi Calm Calm - N/A   Clear
3:56 PM 28.4 °F 19.1 °F 10.4 °F 47% 30.36 in 10.0 mi West 10.4 mph - N/A   Clear
4:16 PM 26.6 °F 18.2 °F 10.4 °F 51% 30.36 in 10.0 mi West 8.1 mph - N/A   Clear
4:19 PM 26.6 °F 19.1 °F 8.6 °F 47% 30.36 in 10.0 mi WSW 6.9 mph - N/A   Clear